QPF
0.01 0.01 0.04 0.13 0.21 0.20 0.21 0.21 0.11 0.04 0.03 0.05 0.07 0.08 0.08 0.06 0.02 0.01 0.01 0.01 0.01 0.01 0.01 0.02 0.04 0.06 0.12 0.23 0.40 0.43 0.32 0.17 0.13 0.13 0.13 0.08 0.04 0.02 0.04 0.07 0.09 0.11 0.08 0.05
0.00 0.00 0.00 0.01 0.03 0.04 0.04 0.03 0.03 0.05 0.08 0.10 0.13 0.12 0.11 0.08 0.03 0.01 0.01 0.02 0.03 0.03 0.03 0.03 0.04 0.05 0.10 0.15 0.20 0.17 0.12 0.09 0.07 0.05 0.03 0.01 0.01 0.01 0.00 0.01 0.02 0.08 0.07 0.06
0.00 0.00 0.00 0.00 0.01 0.03 0.05 0.05 0.08 0.13 0.16 0.14 0.15 0.14 0.14 0.10 0.03 0.00 0.01 0.02 0.02 0.02 0.03 0.03 0.02 0.02 0.02 0.03 0.05 0.04 0.03 0.02 0.02 0.02 0.03 0.02 0.03 0.02 0.02 0.02 0.02 0.05 0.05 0.08
0.00 0.00 0.00 0.00 0.00 0.01 0.04 0.07 0.10 0.14 0.16 0.13 0.11 0.09 0.08 0.04 0.01 0.00 0.00 0.00 0.00 0.00 0.01 0.01 0.01 0.01 0.01 0.00 0.01 0.01 0.01 0.01 0.01 0.01 0.02 0.03 0.04 0.03 0.02 0.01 0.02 0.06 0.06 0.12
0.00 0.00 0.00 0.00 0.00 0.00 0.01 0.02 0.03 0.04 0.04 0.03 0.02 0.02 0.01 0.00 0.00 0.00 0.00 0.00 0.00 0.00 0.00 0.00 0.00 0.00 0.00 0.00 0.00 0.00 0.00 0.00 0.00 0.00 0.00 0.01 0.01 0.01 0.00 0.00 0.01 0.04 0.07 0.09
0.00 0.00 0.00 0.00 0.00 0.00 0.00 0.01 0.01 0.01 0.00 0.00 0.00 0.00 0.00 0.00 0.00 0.00 0.00 0.00 0.00 0.00 0.00 0.00 0.00 0.00 0.00 0.00 0.00 0.00 0.00 0.00 0.00 0.00 0.00 0.00 0.00 0.00 0.00 0.00 0.00 0.01 0.03 0.04
0.00 0.00 0.00 0.00 0.00 0.00 0.00 0.00 0.00 0.00 0.00 0.00 0.00 0.00 0.00 0.00 0.00 0.00 0.00 0.00 0.00 0.00 0.00 0.00 0.00 0.00 0.00 0.00 0.00 0.00 0.00 0.00 0.00 0.00 0.00 0.00 0.00 0.00 0.00 0.00 0.00 0.00 0.00 0.00
0.00 0.00 0.00 0.00 0.00 0.00 0.00 0.00 0.00 0.00 0.00 0.00 0.00 0.00 0.00 0.00 0.00 0.00 0.00 0.00 0.00 0.00 0.00 0.00 0.00 0.00 0.00 0.00 0.00 0.00 0.00 0.00 0.00 0.00 0.00 0.00 0.00 0.00 0.00 0.00 0.00 0.00 0.00 0.00
0.00 0.00 0.00 0.00 0.00 0.00 0.00 0.00 0.00 0.00 0.00 0.00 0.00 0.00 0.00 0.00 0.00 0.00 0.00 0.00 0.00 0.00 0.00 0.00 0.00 0.00 0.00 0.00 0.00 0.00 0.00 0.00 0.00 0.00 0.00 0.00 0.00 0.00 0.00 0.00 0.00 0.00 0.00 0.00
0.00 0.00 0.00 0.00 0.00 0.00 0.00 0.00 0.00 0.00 0.00 0.00 0.00 0.00 0.00 0.00 0.00 0.00 0.00 0.00 0.00 0.00 0.00 0.00 0.00 0.00 0.00 0.00 0.00 0.00 0.00 0.00 0.00 0.00 0.00 0.00 0.00 0.00 0.00 0.00 0.00 0.00 0.00 0.00
0.00 0.00 0.00 0.00 0.00 0.00 0.00 0.00 0.00 0.00 0.00 0.00 0.00 0.00 0.00 0.00 0.00 0.00 0.00 0.00 0.00 0.00 0.00 0.00 0.00 0.00 0.00 0.00 0.00 0.00 0.00 0.00 0.00 0.00 0.00 0.00 0.00 0.00 0.00 0.00 0.00 0.00 0.00 0.00
0.00 0.00 0.00 0.00 0.00 0.00 0.00 0.00 0.00 0.00 0.00 0.00 0.00 0.00 0.00 0.00 0.00 0.00 0.00 0.00 0.00 0.00 0.00 0.00 0.00 0.00 0.00 0.00 0.00 0.00 0.00 0.00 0.00 0.00 0.00 0.00 0.00 0.00 0.00 0.00 0.00 0.00 0.00 0.00
0.00 0.00 0.00 0.00 0.00 0.00 0.00 0.00 0.00 0.00 0.00 0.00 0.00 0.00 0.00 0.00 0.00 0.00 0.00 0.00 0.00 0.00 0.00 0.00 0.00 0.00 0.00 0.00 0.00 0.00 0.00 0.00 0.00 0.00 0.00 0.00 0.00 0.00 0.00 0.00 0.00 0.00 0.00 0.00
0.00 0.00 0.00 0.00 0.00 0.00 0.00 0.00 0.00 0.00 0.00 0.00 0.00 0.00 0.00 0.00 0.00 0.00 0.00 0.00 0.00 0.00 0.00 0.00 0.00 0.00 0.00 0.00 0.00 0.00 0.00 0.00 0.00 0.00 0.00 0.00 0.00 0.00 0.00 0.00 0.00 0.00 0.00 0.00
0.00 0.00 0.00 0.00 0.00 0.00 0.00 0.00 0.00 0.00 0.00 0.00 0.00 0.00 0.00 0.00 0.00 0.00 0.00 0.00 0.00 0.00 0.00 0.00 0.00 0.00 0.00 0.00 0.00 0.00 0.00 0.00 0.00 0.00 0.00 0.00 0.00 0.00 0.00 0.00 0.00 0.00 0.00 0.00
0.00 0.00 0.00 0.00 0.00 0.00 0.00 0.00 0.00 0.00 0.00 0.00 0.00 0.00 0.00 0.00 0.00 0.00 0.00 0.00 0.00 0.00 0.00 0.00 0.00 0.00 0.00 0.00 0.00 0.00 0.00 0.00 0.00 0.00 0.00 0.00 0.00 0.00 0.00 0.00 0.00 0.00 0.00 0.00
0.00 0.00 0.00 0.00 0.00 0.00 0.00 0.00 0.00 0.00 0.00 0.00 0.00 0.00 0.00 0.00 0.00 0.00 0.00 0.00 0.00 0.00 0.00 0.00 0.00 0.00 0.00 0.00 0.00 0.00 0.00 0.00 0.00 0.00 0.00 0.00 0.00 0.00 0.00 0.00 0.00 0.00 0.00 0.00
0.00 0.00 0.00 0.00 0.00 0.00 0.00 0.00 0.00 0.00 0.00 0.00 0.00 0.00 0.00 0.00 0.00 0.00 0.00 0.00 0.00 0.00 0.00 0.00 0.00 0.00 0.00 0.00 0.00 0.00 0.00 0.00 0.00 0.00 0.00 0.00 0.00 0.00 0.00 0.00 0.00 0.00 0.00 0.00
0.00 0.00 0.00 0.00 0.00 0.00 0.00 0.00 0.00 0.00 0.00 0.00 0.00 0.00 0.00 0.00 0.00 0.00 0.00 0.00 0.00 0.00 0.00 0.00 0.00 0.00 0.00 0.00 0.00 0.00 0.00 0.00 0.00 0.00 0.00 0.00 0.00 0.00 0.00 0.00 0.00 0.00 0.00 0.00
0.00 0.00 0.00 0.00 0.00 0.00 0.00 0.00 0.00 0.00 0.00 0.00 0.00 0.00 0.00 0.00 0.00 0.00 0.00 0.00 0.00 0.00 0.00 0.00 0.00 0.00 0.00 0.00 0.00 0.00 0.00 0.00 0.00 0.00 0.00 0.00 0.00 0.00 0.00 0.00 0.00 0.00 0.00 0.00
0.00 0.00 0.00 0.00 0.00 0.00 0.00 0.00 0.00 0.00 0.00 0.00 0.00 0.00 0.00 0.00 0.00 0.00 0.00 0.00 0.00 0.00 0.00 0.00 0.00 0.00 0.00 0.00 0.00 0.00 0.00 0.00 0.00 0.00 0.00 0.00 0.00 0.00 0.00 0.00 0.00 0.00 0.00 0.00
0.00 0.00 0.00 0.00 0.00 0.00 0.00 0.00 0.00 0.00 0.00 0.00 0.00 0.00 0.00 0.00 0.00 0.00 0.00 0.00 0.00 0.00 0.00 0.00 0.00 0.00 0.00 0.00 0.00 0.00 0.00 0.00 0.00 0.00 0.00 0.00 0.00 0.00 0.00 0.00 0.00 0.00 0.00 0.00
0.00 0.00 0.00 0.00 0.00 0.00 0.00 0.00 0.00 0.00 0.00 0.00 0.00 0.00 0.00 0.00 0.00 0.00 0.00 0.00 0.00 0.00 0.00 0.00 0.00 0.00 0.00 0.00 0.00 0.00 0.00 0.00 0.00 0.00 0.00 0.00 0.00 0.00 0.00 0.00 0.00 0.00 0.00 0.00
0.00 0.00 0.00 0.00 0.00 0.00 0.00 0.00 0.00 0.00 0.00 0.00 0.00 0.00 0.00 0.00 0.00 0.00 0.00 0.00 0.00 0.00 0.00 0.00 0.00 0.00 0.00 0.00 0.00 0.00 0.00 0.00 0.00 0.00 0.00 0.00 0.00 0.00 0.00 0.00 0.00 0.00 0.00 0.00
0.00 0.00 0.00 0.00 0.00 0.00 0.00 0.00 0.00 0.00 0.00 0.00 0.00 0.00 0.00 0.00 0.00 0.00 0.00 0.00 0.00 0.00 0.00 0.00 0.00 0.00 0.00 0.00 0.00 0.00 0.00 0.00 0.00 0.00 0.00 0.00 0.00 0.00 0.00 0.00 0.00 0.00 0.00 0.00
0.00 0.00 0.00 0.00 0.00 0.00 0.00 0.00 0.00 0.00 0.00 0.00 0.00 0.00 0.00 0.00 0.00 0.00 0.00 0.00 0.00 0.00 0.00 0.00 0.00 0.00 0.00 0.00 0.00 0.00 0.00 0.00 0.00 0.00 0.00 0.00 0.00 0.00 0.00 0.00 0.00 0.00 0.00 0.00
0.00 0.00 0.00 0.00 0.00 0.00 0.00 0.00 0.00 0.00 0.00 0.00 0.00 0.00 0.00 0.00 0.00 0.00 0.00 0.00 0.00 0.00 0.00 0.00 0.00 0.00 0.00 0.00 0.00 0.00 0.00 0.00 0.00 0.00 0.00 0.00 0.00 0.00 0.00 0.00 0.00 0.00 0.00 0.00
MSLP
1022.92 1022.97 1022.97 1022.93 1022.82 1022.63 1022.35 1021.99 1021.54 1021.02 1020.43 1019.81 1019.17 1018.51 1017.85 1017.19 1016.54 1015.90 1015.26 1014.65 1014.08 1013.55 1013.08 1012.69 1012.38 1012.14 1011.97 1011.86 1011.79 1011.74 1011.71 1011.69 1011.68 1011.70 1011.74 1011.81 1011.91 1012.04 1012.17 1012.30 1012.41 1012.50 1012.56 1012.61
1023.49 1023.58 1023.61 1023.57 1023.45 1023.23 1022.92 1022.52 1022.04 1021.48 1020.88 1020.24 1019.60 1018.94 1018.30 1017.65 1017.02 1016.39 1015.78 1015.19 1014.63 1014.11 1013.66 1013.27 1012.96 1012.71 1012.53 1012.39 1012.30 1012.23 1012.17 1012.14 1012.12 1012.12 1012.15 1012.20 1012.28 1012.36 1012.44 1012.50 1012.54 1012.54 1012.52 1012.48
1024.08 1024.18 1024.21 1024.17 1024.03 1023.79 1023.46 1023.03 1022.53 1021.97 1021.36 1020.73 1020.09 1019.45 1018.81 1018.19 1017.57 1016.97 1016.38 1015.81 1015.27 1014.78 1014.35 1013.99 1013.69 1013.45 1013.27 1013.13 1013.02 1012.94 1012.86 1012.80 1012.76 1012.74 1012.73 1012.75 1012.78 1012.81 1012.84 1012.83 1012.79 1012.71 1012.60 1012.48
1024.62 1024.70 1024.71 1024.64 1024.48 1024.22 1023.88 1023.45 1022.95 1022.40 1021.80 1021.19 1020.57 1019.95 1019.34 1018.73 1018.13 1017.55 1016.98 1016.45 1015.94 1015.49 1015.10 1014.77 1014.50 1014.29 1014.12 1013.99 1013.88 1013.78 1013.69 1013.60 1013.52 1013.46 1013.41 1013.38 1013.36 1013.34 1013.31 1013.24 1013.14 1013.00 1012.82 1012.63
1025.01 1025.05 1025.02 1024.92 1024.73 1024.47 1024.12 1023.70 1023.22 1022.70 1022.14 1021.56 1020.97 1020.37 1019.78 1019.20 1018.63 1018.07 1017.53 1017.02 1016.56 1016.15 1015.79 1015.51 1015.28 1015.10 1014.96 1014.84 1014.74 1014.63 1014.52 1014.41 1014.30 1014.19 1014.10 1014.02 1013.95 1013.89 1013.80 1013.70 1013.56 1013.38 1013.17 1012.94
1025.20 1025.18 1025.10 1024.95 1024.75 1024.48 1024.15 1023.76 1023.31 1022.83 1022.32 1021.78 1021.23 1020.67 1020.11 1019.55 1019.00 1018.46 1017.95 1017.47 1017.04 1016.66 1016.35 1016.11 1015.92 1015.78 1015.67 1015.58 1015.48 1015.38 1015.26 1015.13 1014.99 1014.85 1014.72 1014.60 1014.50 1014.39 1014.29 1014.16 1014.01 1013.82 1013.60 1013.35
1025.14 1025.05 1024.91 1024.74 1024.53 1024.26 1023.96 1023.61 1023.22 1022.79 1022.34 1021.85 1021.35 1020.83 1020.30 1019.76 1019.23 1018.71 1018.21 1017.75 1017.34 1017.00 1016.72 1016.51 1016.35 1016.25 1016.17 1016.10 1016.02 1015.93 1015.81 1015.67 1015.52 1015.37 1015.22 1015.08 1014.95 1014.84 1014.73 1014.60 1014.46 1014.28 1014.07 1013.84
1024.82 1024.67 1024.50 1024.30 1024.09 1023.85 1023.59 1023.29 1022.96 1022.60 1022.21 1021.78 1021.33 1020.86 1020.36 1019.85 1019.33 1018.82 1018.33 1017.88 1017.48 1017.14 1016.88 1016.68 1016.55 1016.46 1016.41 1016.37 1016.31 1016.24 1016.14 1016.02 1015.87 1015.72 1015.57 1015.44 1015.32 1015.21 1015.11 1015.00 1014.88 1014.73 1014.54 1014.33
1024.28 1024.08 1023.89 1023.70 1023.50 1023.30 1023.09 1022.86 1022.60 1022.30 1021.98 1021.62 1021.22 1020.79 1020.32 1019.84 1019.34 1018.83 1018.34 1017.89 1017.48 1017.14 1016.87 1016.67 1016.54 1016.46 1016.42 1016.39 1016.37 1016.32 1016.26 1016.17 1016.05 1015.93 1015.81 1015.70 1015.60 1015.51 1015.44 1015.36 1015.26 1015.14 1014.98 1014.78
1023.56 1023.35 1023.16 1022.99 1022.84 1022.69 1022.54 1022.37 1022.18 1021.96 1021.70 1021.40 1021.06 1020.68 1020.25 1019.79 1019.31 1018.82 1018.32 1017.86 1017.43 1017.06 1016.77 1016.54 1016.39 1016.29 1016.25 1016.23 1016.23 1016.22 1016.20 1016.15 1016.10 1016.02 1015.95 1015.87 1015.81 1015.76 1015.71 1015.66 1015.59 1015.49 1015.35 1015.16
1022.74 1022.55 1022.39 1022.26 1022.16 1022.07 1021.99 1021.89 1021.76 1021.61 1021.42 1021.18 1020.90 1020.57 1020.19 1019.76 1019.30 1018.82 1018.33 1017.84 1017.39 1016.98 1016.64 1016.37 1016.17 1016.04 1015.98 1015.96 1015.98 1016.00 1016.02 1016.04 1016.05 1016.04 1016.02 1016.00 1015.99 1015.97 1015.95 1015.92 1015.86 1015.78 1015.64 1015.45
1021.89 1021.73 1021.63 1021.57 1021.54 1021.52 1021.50 1021.46 1021.40 1021.31 1021.17 1020.99 1020.76 1020.49 1020.16 1019.78 1019.35 1018.88 1018.39 1017.90 1017.41 1016.96 1016.56 1016.23 1015.97 1015.79 1015.69 1015.66 1015.68 1015.73 1015.80 1015.88 1015.95 1016.02 1016.07 1016.11 1016.14 1016.16 1016.16 1016.15 1016.10 1016.01 1015.88 1015.69
1021.04 1020.96 1020.93 1020.95 1021.00 1021.05 1021.10 1021.12 1021.11 1021.06 1020.97 1020.85 1020.67 1020.44 1020.17 1019.83 1019.45 1019.01 1018.54 1018.03 1017.52 1017.02 1016.56 1016.16 1015.83 1015.60 1015.45 1015.39 1015.40 1015.47 1015.59 1015.72 1015.87 1016.00 1016.12 1016.22 1016.30 1016.35 1016.37 1016.36 1016.31 1016.22 1016.08 1015.89
1020.23 1020.24 1020.31 1020.43 1020.56 1020.69 1020.79 1020.86 1020.89 1020.88 1020.82 1020.73 1020.60 1020.42 1020.20 1019.92 1019.58 1019.18 1018.73 1018.22 1017.69 1017.15 1016.64 1016.17 1015.78 1015.47 1015.27 1015.18 1015.18 1015.26 1015.41 1015.60 1015.80 1016.01 1016.19 1016.35 1016.46 1016.54 1016.58 1016.57 1016.52 1016.42 1016.28 1016.10
1019.48 1019.60 1019.78 1020.00 1020.22 1020.42 1020.57 1020.68 1020.73 1020.74 1020.71 1020.64 1020.54 1020.41 1020.23 1020.00 1019.71 1019.35 1018.92 1018.43 1017.89 1017.33 1016.77 1016.24 1015.79 1015.42 1015.17 1015.04 1015.02 1015.11 1015.29 1015.52 1015.78 1016.04 1016.28 1016.48 1016.64 1016.74 1016.79 1016.78 1016.73 1016.63 1016.50 1016.33
1018.79 1019.03 1019.33 1019.65 1019.96 1020.22 1020.42 1020.55 1020.62 1020.63 1020.61 1020.55 1020.47 1020.36 1020.22 1020.03 1019.78 1019.47 1019.07 1018.60 1018.07 1017.49 1016.90 1016.34 1015.83 1015.42 1015.12 1014.96 1014.93 1015.02 1015.22 1015.48 1015.78 1016.10 1016.39 1016.63 1016.82 1016.94 1017.00 1017.00 1016.95 1016.86 1016.74 1016.60
1018.14 1018.51 1018.93 1019.36 1019.74 1020.06 1020.30 1020.45 1020.52 1020.53 1020.50 1020.44 1020.36 1020.27 1020.15 1020.00 1019.79 1019.51 1019.15 1018.70 1018.18 1017.60 1017.00 1016.42 1015.88 1015.43 1015.11 1014.93 1014.89 1014.98 1015.19 1015.48 1015.82 1016.17 1016.50 1016.78 1016.99 1017.13 1017.20 1017.20 1017.16 1017.08 1016.98 1016.88
1017.55 1018.04 1018.58 1019.10 1019.56 1019.93 1020.19 1020.35 1020.42 1020.42 1020.37 1020.30 1020.22 1020.13 1020.02 1019.89 1019.71 1019.46 1019.14 1018.72 1018.22 1017.65 1017.05 1016.46 1015.91 1015.45 1015.11 1014.91 1014.87 1014.97 1015.19 1015.50 1015.87 1016.25 1016.60 1016.91 1017.14 1017.29 1017.37 1017.38 1017.34 1017.28 1017.21 1017.14
1017.02 1017.62 1018.25 1018.84 1019.36 1019.77 1020.06 1020.22 1020.29 1020.28 1020.22 1020.13 1020.04 1019.95 1019.85 1019.73 1019.57 1019.35 1019.04 1018.65 1018.18 1017.63 1017.04 1016.46 1015.91 1015.45 1015.11 1014.91 1014.86 1014.97 1015.20 1015.52 1015.90 1016.30 1016.67 1016.99 1017.23 1017.39 1017.48 1017.50 1017.47 1017.42 1017.37 1017.35
1016.57 1017.25 1017.94 1018.59 1019.15 1019.58 1019.88 1020.05 1020.12 1020.10 1020.03 1019.94 1019.85 1019.75 1019.66 1019.55 1019.40 1019.19 1018.91 1018.54 1018.09 1017.56 1017.00 1016.42 1015.89 1015.43 1015.09 1014.89 1014.85 1014.95 1015.18 1015.51 1015.89 1016.30 1016.68 1017.01 1017.26 1017.43 1017.51 1017.54 1017.52 1017.49 1017.46 1017.47
1016.20 1016.92 1017.65 1018.32 1018.89 1019.34 1019.64 1019.82 1019.89 1019.88 1019.82 1019.73 1019.64 1019.56 1019.47 1019.37 1019.24 1019.05 1018.78 1018.43 1017.99 1017.48 1016.93 1016.38 1015.85 1015.40 1015.06 1014.86 1014.81 1014.90 1015.12 1015.44 1015.82 1016.22 1016.61 1016.94 1017.19 1017.37 1017.47 1017.51 1017.50 1017.49 1017.48 1017.51
1015.93 1016.65 1017.36 1018.02 1018.59 1019.03 1019.34 1019.52 1019.60 1019.61 1019.57 1019.51 1019.45 1019.38 1019.31 1019.23 1019.10 1018.93 1018.67 1018.33 1017.91 1017.41 1016.87 1016.32 1015.80 1015.35 1015.00 1014.79 1014.73 1014.80 1015.01 1015.31 1015.68 1016.07 1016.45 1016.78 1017.04 1017.23 1017.35 1017.40 1017.42 1017.42 1017.44 1017.49
1015.73 1016.41 1017.08 1017.70 1018.24 1018.66 1018.96 1019.15 1019.26 1019.30 1019.30 1019.28 1019.25 1019.22 1019.18 1019.11 1019.01 1018.84 1018.59 1018.26 1017.84 1017.35 1016.81 1016.26 1015.74 1015.28 1014.92 1014.69 1014.60 1014.65 1014.83 1015.11 1015.45 1015.83 1016.20 1016.53 1016.81 1017.02 1017.16 1017.25 1017.30 1017.33 1017.38 1017.46
1015.59 1016.20 1016.80 1017.35 1017.83 1018.22 1018.52 1018.72 1018.86 1018.94 1018.99 1019.02 1019.04 1019.05 1019.05 1019.01 1018.92 1018.77 1018.53 1018.20 1017.78 1017.29 1016.75 1016.19 1015.66 1015.19 1014.81 1014.56 1014.44 1014.46 1014.60 1014.85 1015.17 1015.52 1015.89 1016.22 1016.52 1016.75 1016.93 1017.06 1017.15 1017.23 1017.32 1017.43
1015.47 1015.98 1016.49 1016.96 1017.38 1017.74 1018.02 1018.23 1018.40 1018.52 1018.63 1018.71 1018.79 1018.85 1018.89 1018.88 1018.82 1018.68 1018.44 1018.12 1017.70 1017.21 1016.66 1016.10 1015.56 1015.08 1014.68 1014.40 1014.25 1014.23 1014.34 1014.55 1014.84 1015.18 1015.53 1015.88 1016.19 1016.46 1016.68 1016.86 1017.00 1017.14 1017.27 1017.43
1015.31 1015.72 1016.14 1016.53 1016.88 1017.19 1017.45 1017.68 1017.87 1018.04 1018.20 1018.34 1018.47 1018.58 1018.66 1018.68 1018.64 1018.51 1018.30 1017.98 1017.57 1017.08 1016.54 1015.98 1015.44 1014.95 1014.54 1014.24 1014.06 1014.01 1014.08 1014.25 1014.51 1014.82 1015.17 1015.52 1015.85 1016.14 1016.41 1016.64 1016.84 1017.03 1017.23 1017.43
1015.07 1015.39 1015.70 1016.02 1016.31 1016.58 1016.83 1017.06 1017.28 1017.48 1017.68 1017.87 1018.05 1018.20 1018.31 1018.37 1018.35 1018.24 1018.04 1017.74 1017.35 1016.89 1016.37 1015.83 1015.30 1014.82 1014.40 1014.09 1013.89 1013.81 1013.85 1013.99 1014.21 1014.50 1014.82 1015.16 1015.50 1015.82 1016.12 1016.39 1016.65 1016.89 1017.14 1017.39
Thickness
5576 5576 5575 5573 5574 5577 5577 5576 5576 5579 5585 5588 5592 5598 5606 5616 5628 5638 5646 5652 5656 5660 5664 5669 5674 5679 5682 5683 5683 5685 5686 5685 5684 5683 5681 5678 5676 5675 5673 5669 5666 5663 5660 5659
5582 5582 5579 5574 5574 5577 5578 5577 5579 5584 5586 5588 5594 5600 5607 5614 5623 5631 5639 5645 5650 5655 5660 5663 5666 5670 5673 5675 5676 5678 5678 5678 5678 5676 5675 5673 5672 5670 5667 5664 5661 5659 5657 5656
5580 5583 5582 5568 5571 5573 5576 5575 5576 5577 5579 5588 5595 5601 5605 5610 5618 5627 5635 5640 5644 5649 5653 5656 5659 5662 5664 5666 5668 5669 5669 5670 5671 5671 5670 5667 5665 5662 5660 5657 5656 5656 5654 5653
5582 5585 5572 5573 5581 5580 5580 5581 5581 5583 5587 5592 5598 5605 5612 5615 5618 5625 5633 5637 5640 5642 5645 5649 5652 5654 5656 5658 5659 5659 5659 5659 5660 5660 5659 5657 5655 5652 5650 5649 5648 5648 5647 5647
5583 5577 5580 5585 5587 5583 5581 5584 5588 5590 5595 5600 5606 5615 5619 5622 5623 5627 5633 5638 5641 5643 5645 5647 5649 5650 5651 5651 5651 5652 5652 5651 5651 5651 5648 5646 5644 5642 5641 5640 5639 5638 5637 5637
5593 5590 5581 5588 5596 5594 5587 5589 5595 5596 5597 5600 5603 5605 5610 5621 5624 5631 5636 5640 5642 5644 5645 5646 5646 5647 5648 5647 5647 5646 5644 5643 5642 5641 5639 5636 5635 5634 5632 5631 5629 5629 5628 5627
5597 5594 5592 5603 5604 5600 5588 5592 5600 5600 5600 5600 5598 5601 5611 5619 5624 5630 5635 5639 5640 5640 5640 5640 5640 5640 5639 5638 5637 5636 5635 5634 5633 5631 5630 5628 5626 5625 5623 5622 5622 5621 5620 5619
5597 5597 5598 5613 5608 5602 5601 5605 5605 5606 5607 5606 5609 5615 5620 5626 5629 5633 5636 5639 5640 5638 5638 5638 5637 5636 5634 5632 5631 5630 5628 5627 5625 5623 5622 5620 5618 5616 5615 5614 5613 5612 5612 5611
5610 5609 5616 5617 5615 5616 5612 5610 5611 5611 5613 5613 5615 5620 5624 5629 5632 5635 5638 5640 5641 5639 5638 5639 5638 5637 5635 5633 5630 5628 5626 5625 5622 5620 5616 5614 5612 5609 5607 5606 5604 5604 5603 5603
5618 5616 5618 5618 5618 5619 5618 5616 5617 5617 5617 5619 5621 5624 5627 5630 5633 5635 5638 5640 5641 5641 5640 5640 5640 5638 5637 5635 5633 5630 5627 5624 5621 5618 5614 5611 5608 5605 5602 5599 5597 5596 5596 5595
5624 5623 5621 5620 5619 5621 5621 5621 5622 5624 5625 5625 5626 5628 5630 5631 5634 5636 5639 5641 5642 5641 5641 5642 5643 5642 5641 5639 5637 5633 5629 5625 5622 5618 5613 5610 5606 5601 5598 5595 5592 5591 5590 5589
5633 5634 5626 5623 5624 5623 5622 5625 5626 5626 5626 5628 5628 5629 5631 5632 5635 5637 5639 5641 5642 5643 5644 5645 5646 5646 5646 5644 5640 5636 5632 5628 5623 5618 5614 5610 5606 5601 5597 5594 5591 5590 5588 5586
5656 5649 5640 5637 5631 5628 5626 5627 5628 5627 5627 5627 5628 5629 5631 5632 5635 5637 5639 5641 5643 5645 5647 5649 5650 5650 5650 5648 5644 5640 5635 5630 5624 5620 5615 5610 5606 5602 5597 5595 5592 5590 5587 5585
5663 5654 5646 5642 5637 5634 5631 5630 5628 5627 5627 5627 5628 5630 5631 5633 5636 5638 5640 5641 5644 5647 5650 5652 5654 5654 5654 5652 5647 5642 5637 5632 5626 5621 5616 5611 5607 5602 5598 5595 5591 5589 5587 5584
5667 5663 5656 5650 5644 5640 5635 5630 5627 5625 5626 5627 5629 5630 5631 5633 5635 5638 5641 5643 5645 5648 5651 5653 5654 5656 5656 5655 5651 5645 5639 5633 5628 5623 5618 5613 5608 5603 5599 5595 5590 5587 5585 5583
5671 5665 5659 5652 5647 5643 5639 5634 5628 5626 5625 5626 5627 5629 5631 5633 5636 5639 5642 5644 5645 5646 5649 5651 5653 5655 5657 5657 5654 5648 5642 5638 5632 5626 5621 5615 5611 5606 5600 5596 5593 5590 5587 5582
5673 5666 5660 5655 5650 5646 5642 5637 5631 5628 5625 5625 5626 5628 5630 5633 5636 5639 5642 5645 5646 5647 5648 5649 5652 5657 5660 5661 5658 5652 5645 5640 5635 5628 5623 5618 5613 5608 5603 5599 5595 5592 5588 5584
5685 5680 5672 5665 5657 5651 5646 5641 5636 5632 5628 5627 5627 5628 5630 5631 5633 5636 5640 5644 5647 5650 5651 5652 5654 5658 5662 5663 5660 5655 5648 5641 5636 5630 5626 5621 5616 5610 5606 5601 5598 5595 5591 5588
5681 5676 5671 5666 5661 5654 5648 5643 5640 5636 5633 5630 5628 5627 5628 5630 5632 5634 5637 5640 5643 5647 5650 5652 5656 5657 5660 5661 5660 5656 5651 5645 5639 5633 5629 5625 5619 5614 5609 5605 5601 5598 5595 5593
5678 5674 5669 5665 5661 5655 5650 5646 5642 5638 5635 5633 5630 5628 5628 5628 5629 5630 5632 5635 5638 5642 5646 5650 5654 5656 5658 5660 5659 5656 5652 5648 5643 5637 5632 5627 5622 5617 5613 5609 5606 5603 5601 5598
5676 5672 5668 5663 5660 5656 5652 5648 5643 5640 5637 5634 5631 5629 5627 5625 5625 5625 5626 5630 5638 5642 5645 5651 5653 5655 5658 5660 5660 5656 5654 5650 5646 5641 5636 5631 5626 5621 5617 5613 5610 5608 5605 5603
5672 5669 5666 5662 5658 5655 5651 5647 5643 5641 5637 5634 5631 5629 5626 5623 5621 5620 5622 5626 5633 5640 5645 5649 5653 5656 5659 5662 5660 5657 5655 5652 5649 5645 5640 5635 5630 5625 5621 5618 5615 5612 5609 5607
5668 5665 5662 5659 5656 5652 5649 5645 5642 5640 5637 5634 5630 5627 5624 5620 5616 5613 5616 5624 5630 5637 5644 5649 5654 5659 5663 5664 5661 5659 5656 5653 5650 5647 5644 5640 5635 5629 5625 5622 5619 5615 5612 5609
5662 5659 5657 5654 5650 5646 5644 5644 5642 5639 5637 5634 5631 5627 5623 5619 5616 5616 5616 5621 5628 5635 5641 5648 5654 5660 5665 5664 5662 5659 5656 5654 5651 5648 5646 5642 5638 5633 5628 5624 5621 5618 5615 5612
5655 5653 5650 5645 5641 5641 5642 5641 5639 5637 5636 5633 5631 5628 5625 5621 5617 5618 5618 5621 5627 5633 5639 5646 5653 5658 5662 5663 5662 5660 5657 5654 5651 5649 5647 5644 5640 5636 5631 5627 5623 5620 5618 5614
5646 5646 5645 5644 5642 5639 5636 5634 5633 5634 5633 5632 5631 5630 5627 5625 5622 5621 5621 5623 5627 5632 5637 5643 5648 5654 5658 5660 5661 5661 5658 5655 5652 5650 5648 5645 5642 5638 5634 5630 5626 5622 5619 5615
5636 5636 5635 5633 5631 5631 5630 5630 5629 5630 5631 5631 5630 5630 5629 5628 5626 5625 5624 5625 5627 5630 5634 5639 5644 5650 5654 5657 5658 5659 5658 5656 5654 5651 5648 5646 5643 5640 5636 5633 5628 5624 5620 5616